This is the latest recevied weather packets stored in our database for station/object KI4HRG. If no packets are shown the sender has not sent any weather packets the latest 10 day(s).
| Time | Temp. | Humidity | Pressure | Rain* | Wind** | Luminosity | Snow |
|---|---|---|---|---|---|---|---|
| 1777305874 | 22.78° C | 80% | 1018 hPa | 0 mm | - | 418 W/m² | - |
| 1777305572 | 22.78° C | 79% | 1018.2 hPa | 0 mm | - | 579 W/m² | - |
| 1777305267 | 22.78° C | 79% | 1018.2 hPa | 0 mm | - | 297 W/m² | - |
| 1777304961 | 22.78° C | 80% | 1018 hPa | 0 mm | - | 353 W/m² | - |
| 1777304658 | 22.78° C | 80% | 1018 hPa | 0 mm | - | 293 W/m² | - |
| 1777304354 | 22.22° C | 81% | 1018 hPa | 0 mm | - | 720 W/m² | - |
| 1777304052 | 21.67° C | 82% | 1018.1 hPa | 0 mm | - | 900 W/m² | - |
| 1777303748 | 21.67° C | 83% | 1018.1 hPa | 0 mm | - | 246 W/m² | - |
| 1777303446 | 21.67° C | 83% | 1018.1 hPa | 0 mm | - | 228 W/m² | - |
| 1777303143 | 22.22° C | 82% | 1017.8 hPa | 0 mm | - | 200 W/m² | - |
| 1777302842 | 21.67° C | 82% | 1018.1 hPa | 0 mm | - | 751 W/m² | - |
| 1777302538 | 21.11° C | 84% | 1018 hPa | 0 mm | - | 292 W/m² | - |
| 1777302236 | 21.11° C | 84% | 1017.9 hPa | 0 mm | - | 231 W/m² | - |
| 1777301933 | 21.11° C | 85% | 1018.2 hPa | 0 mm | - | 282 W/m² | - |
| 1777301631 | 21.11° C | 85% | 1018 hPa | 0 mm | - | 198 W/m² | - |
| 1777301328 | 21.11° C | 84% | 1018 hPa | 0 mm | - | 225 W/m² | - |
| 1777301024 | 21.11° C | 84% | 1018.1 hPa | 0 mm | - | 225 W/m² | - |
| 1777300722 | 21.11° C | 84% | 1018.1 hPa | 0 mm | - | 281 W/m² | - |
| 1777300420 | 21.11° C | 85% | 1018 hPa | 0 mm | - | 327 W/m² | - |
| 1777300117 | 21.11° C | 85% | 1017.8 hPa | 0 mm | - | 252 W/m² | - |
| 1777299813 | 21.11° C | 84% | 1017.9 hPa | 0 mm | - | 191 W/m² | - |
| 1777299511 | 20.56° C | 85% | 1017.8 hPa | 0 mm | - | 201 W/m² | - |
| 1777299208 | 21.11° C | 85% | 1017.9 hPa | 0 mm | - | 209 W/m² | - |
| 1777298906 | 21.11° C | 84% | 1017.8 hPa | 0 mm | - | 192 W/m² | - |
| 1777298602 | 21.11° C | 85% | 1018.1 hPa | 0 mm | - | 179 W/m² | - |
* Rain latest hour (hover to see other rain measurements)
** Current wind speed in m/s (hover to see current wind gust speed)